TimeCDT,TemperatureF,Dew PointF,Humidity,Sea Level PressureIn,VisibilityMPH,Wind Direction,Wind SpeedMPH,Gust SpeedMPH,PrecipitationIn,Events,Conditions,WindDirDegrees,DateUTC
12:55 AM,55.6,43.3,63,29.99,10.0,West,3.5,-,N/A,,Clear,270,2012-11-01 05:55:00
1:55 AM,52.5,42.8,70,29.99,10.0,Calm,Calm,-,N/A,,Clear,0,2012-11-01 06:55:00
2:55 AM,51.4,43.9,75,29.99,10.0,Calm,Calm,-,N/A,,Clear,0,2012-11-01 07:55:00
3:55 AM,51.8,43.2,72,29.98,10.0,West,4.6,-,N/A,,Clear,260,2012-11-01 08:55:00
4:55 AM,51.1,43.3,75,29.97,10.0,Calm,Calm,-,N/A,,Clear,0,2012-11-01 09:55:00
5:55 AM,49.8,43.0,77,29.97,10.0,Calm,Calm,-,N/A,,Clear,0,2012-11-01 10:55:00
6:55 AM,49.6,43.3,79,29.97,10.0,Calm,Calm,-,N/A,,Clear,0,2012-11-01 11:55:00
7:55 AM,50.9,43.7,76,29.98,10.0,SSW,3.5,-,N/A,,Clear,200,2012-11-01 12:55:00
8:55 AM,52.0,45.1,77,30.01,10.0,Calm,Calm,-,N/A,,Clear,0,2012-11-01 13:55:00
9:55 AM,58.6,47.7,67,30.01,10.0,South,4.6,-,N/A,,Clear,170,2012-11-01 14:55:00
10:55 AM,64.0,47.5,55,30.00,10.0,SSW,5.8,-,N/A,,Clear,200,2012-11-01 15:55:00
11:55 AM,72.1,48.2,43,29.98,10.0,Variable,6.9,-,N/A,,Clear,0,2012-11-01 16:55:00
12:55 PM,80.6,44.4,28,29.94,10.0,WSW,9.2,-,N/A,,Clear,250,2012-11-01 17:55:00
1:55 PM,82.8,42.8,24,29.92,10.0,WSW,12.7,18.4,N/A,,Clear,250,2012-11-01 18:55:00
2:55 PM,85.3,40.6,21,29.89,10.0,West,11.5,17.3,N/A,,Clear,280,2012-11-01 19:55:00
3:55 PM,85.8,40.5,20,29.88,10.0,WSW,5.8,-,N/A,,Clear,240,2012-11-01 20:55:00
4:55 PM,85.8,38.5,19,29.88,10.0,West,9.2,-,N/A,,Clear,260,2012-11-01 21:55:00
5:55 PM,83.7,40.5,22,29.88,10.0,WSW,4.6,-,N/A,,Clear,250,2012-11-01 22:55:00
6:55 PM,74.1,42.1,32,29.89,10.0,NE,5.8,-,N/A,,Clear,50,2012-11-01 23:55:00
7:55 PM,67.6,44.2,43,29.91,10.0,Calm,Calm,-,N/A,,Clear,0,2012-11-02 00:55:00
8:55 PM,67.3,44.1,43,29.91,10.0,East,5.8,-,N/A,,Clear,80,2012-11-02 01:55:00
9:55 PM,66.6,43.5,43,29.91,10.0,Calm,Calm,-,N/A,,Clear,0,2012-11-02 02:55:00
10:55 PM,61.2,45.0,55,29.91,10.0,Calm,Calm,-,N/A,,Clear,0,2012-11-02 03:55:00
11:55 PM,60.1,44.8,57,29.90,10.0,Calm,Calm,-,N/A,,Clear,0,2012-11-02 04:55:00